Regional Weather Roundup
Issued by NWS Green Bay, WI

Home | Current Version | Previous Version | Graphics & Text | Print | Product List | Glossary Off
Versions: 1 2 3 4 5 6 7 8 9 10 11 12 13 14 15 16 17 18 19 20 21 22 23 24 25 26 27 28 29 30 31 32 33 34 35 36 37 38 39 40 41 42 43 44 45 46 47 48 49 50

000
ASUS43 KGRB 270210
RWRGRB

NORTH-CENTRAL AND NORTHEAST WISCONSIN REGIONAL WEATHER ROUNDUP
NATIONAL WEATHER SERVICE GREEN BAY WI
900 PM CDT THU MAR 26 2015

WIZ005-009-010>012-018-019-270300-
NORTH CENTRAL WISCONSIN

CITY           SKY/WX    TMP DP  RH WIND       PRES   REMARKS
IRONWOOD       CLOUDY    21   7  53 N10       30.10S
MANITOWISH WTR MOCLDY    14   5  68 CALM      30.10R
ARBOR VITAE    PTCLDY    17   6  62 CALM      30.10R
EAGLE RIVER    CLOUDY    16   4  61 CALM      30.09R
LAND O LAKES   CLOUDY    15   7  72 CALM      30.09S
RHINELANDER    PTCLDY    15   7  70 NE3       30.10R
PHILLIPS       CLEAR     17   7  62 N6        30.11R WCI   9
ANTIGO         CLOUDY    19  11  71 N12       30.09R WCI   6
TOMAHAWK       CLEAR     16   4  60 CALM      30.11R
MERRILL        CLEAR     19   7  59 N6        30.11R
$$

WIZ013-073-270300-
NORTHEAST WISCONSIN

CITY           SKY/WX    TMP DP  RH WIND       PRES   REMARKS
IRON MOUNTAIN  PTCLDY    16   3  56 NW7       30.09R WCI   6
MARINETTE      CLOUDY    23   9  54 N9G18     30.11R
OCONTO         CLOUDY    25  13  59 N9G17     30.11R
$$

WIZ017-030-035>037-045-270300-
CENTRAL WISCONSIN

CITY           SKY/WX    TMP DP  RH WIND       PRES   REMARKS
MEDFORD        CLEAR     18   8  64 N7        30.10R WCI   8
WAUSAU         CLEAR     22   7  52 N9        30.09R
MOSINEE        CLEAR     21   9  58 N12G17    30.11R WCI   9
MARSHFIELD     CLEAR     24  10  55 NE9       30.09R
WISC RAPIDS    PTCLDY    26  10  50 N13       30.11R
STEVENS POINT  PTCLDY    23   9  55 N10G17    30.11R
WAUPACA        CLOUDY    29  11  45 N10G17    30.10R
SHAWANO        CLOUDY    27  12  52 N12       30.11R
CLINTONVILLE   CLOUDY    28  12  50 N7        30.10R
$$

WIZ038-039-048-051-270300-
FOX VALLEY

CITY           SKY/WX    TMP DP  RH WIND       PRES   REMARKS
NWS GREEN BAY  CLOUDY    28  17  63 N14       30.10R
APPLETON       CLOUDY    27  12  54 N17       30.08R
OSHKOSH        CLOUDY    29  15  56 N17       30.08R
FOND DU LAC    CLOUDY    30  16  56 N13       30.07R
$$

WIZ022-050-052-270300-
EAST CENTRAL WISCONSIN

CITY           SKY/WX    TMP DP  RH WIND       PRES   REMARKS
STURGEON BAY   CLOUDY    25  10  54 N16G23    30.12R
MANITOWOC      CLOUDY    29  19  66 N12       30.08R
SHEBOYGAN      CLOUDY    29  19  66 N9        30.06R
$$

LMZ563-521-522-541>543-270300-
LAKESHORE

STATION/POSITION TIME  TEMP    WIND        PRES    VSBY  WAVE
                       AIR SEA DIR/SP/G                  HT/PER
                 (UTC) (F)     (DEG/KT/KT) (MB)    (MI)  (FT/S)
SHEBOYGAN LKSHOR 0200   30     360/ 16/ 19 1019.2R
KEWAUNEE LKSHORE 0200   27     360/ 12/ 19 1017.9R
NORTHPORT PIER   0200   22     340/ 23/ 25 1020.0R
SISTER BAY LKSHO 0200   22     360/ 24/ 27   N/A
CHAMBERS ISLAND  0200   23     340/ 19/ 21 1019.6R
MENOMINEE LKSHOR 0200   24     320/ 21     1020.2R
$$



USA.gov is the U.S. government's official web portal to all federal, state and local government web resources and services.